{"data":{"norad_id":65940,"intl_designator":"2025-226C","name":"2025-226C","alt_names":[],"object_type":"PAYLOAD","status":"ACTIVE","operator":null,"country":"PRC","launch_date":"2025-10-11","launch_site_code":"YSLA","launch_vehicle":null,"mission":null,"orbit_class":"UNKNOWN","rcs_meters":null,"size_class":null,"mass_kg":null,"dimensions":null,"purposes":[],"wikipedia_slug":null,"has_3d_model":false,"image_url":null,"decayed_at":null,"tle_current":{"epoch":"2026-09-20T22:33:57.758112Z","epoch_age_seconds":105608,"freshness":"FRESH","line1":"1 65940U 25226C   26263.94025183  .00004502  00000+0  23013-3 0  9994","line2":"2 65940  97.6291 344.5941 0013529 162.6984 197.4713 15.17112695 52193","mean_motion":15.17112695,"eccentricity":0.0013529,"inclination_deg":97.6291,"raan_deg":344.5941,"arg_perigee_deg":162.6984,"mean_anomaly_deg":197.4713,"bstar":0.00023013,"rev_number":5219,"period_min":94.91714127407,"perigee_km":505.24689714575,"apogee_km":523.89718927486,"semimajor_km":6892.7090432103,"source":"CELESTRAK","updated_at":"2026-09-21T09:00:15.653019Z"}}}